Location: Chequamegon National Forest
(46.1070°N, 90.8420°W)
Time: 16:25:49
(UTC-05:00)

ISS - All Passes

Search period start: 26 April 2017 00:00
Search period end: 06 May 2017 00:00
Orbit: 401 x 409 km, 51.6° (Epoch: 27 April)

Date Brightness Start Highest point End Pass type
(mag) Time Alt. Az. Time Alt. Az. Time Alt. Az.
26 Apr - 09:20:22 10° SW 09:23:28 42° SE 09:26:35 10° ENE daylight
26 Apr - 10:56:50 10° W 10:59:59 43° NNW 11:03:07 10° ENE daylight
26 Apr - 12:34:02 10° WNW 12:36:58 29° N 12:39:53 10° ENE daylight
26 Apr - 14:10:37 10° WNW 14:13:52 60° NNE 14:17:05 10° ESE daylight
26 Apr - 15:47:25 10° W 15:50:09 25° SW 15:52:54 10° SSE daylight
27 Apr - 08:28:51 10° SSW 08:31:34 24° SE 08:34:18 10° E daylight
27 Apr - 10:04:38 10° WSW 10:07:52 60° NNW 10:11:06 10° ENE daylight
27 Apr - 11:41:49 10° WNW 11:44:45 29° N 11:47:41 10° ENE daylight
27 Apr - 13:18:36 10° WNW 13:21:45 43° NNE 13:24:53 10° E daylight
27 Apr - 14:55:08 10° WNW 14:58:16 42° SW 15:01:22 10° SE daylight
28 Apr - 07:37:52 10° S 07:39:43 14° SE 07:41:35 10° E daylight
28 Apr - 09:12:31 10° WSW 09:15:47 87° SSE 09:19:04 10° ENE daylight
28 Apr - 10:49:33 10° WNW 10:52:33 32° N 10:55:33 10° ENE daylight
28 Apr - 12:26:32 10° WNW 12:29:34 34° NNE 12:32:36 10° E daylight
28 Apr - 14:03:01 10° WNW 14:06:16 74° SSW 14:09:31 10° SE daylight
28 Apr - 15:41:00 10° WSW 15:42:15 12° SW 15:43:31 10° SSW daylight
29 Apr - 08:20:35 10° SW 08:23:46 52° SSE 08:26:57 10° ENE daylight
29 Apr - 09:57:15 10° W 10:00:21 39° NNW 10:03:27 10° ENE daylight
29 Apr - 11:34:25 10° WNW 11:37:21 30° N 11:40:18 10° ENE daylight
29 Apr - 13:10:56 10° WNW 13:14:12 70° NNE 13:17:28 10° ESE daylight
29 Apr - 14:47:56 10° W 14:50:25 20° SW 14:52:55 10° S daylight
30 Apr - 07:28:54 10° SSW 07:31:48 30° SE 07:34:43 10° ENE daylight
30 Apr - 09:04:58 10° W 09:08:11 52° NNW 09:11:24 10° ENE daylight
30 Apr - 10:42:11 10° WNW 10:45:07 29° N 10:48:02 10° ENE daylight
30 Apr - 12:18:53 10° WNW 12:22:04 48° NNE 12:25:14 10° E daylight
30 Apr - 13:55:30 10° WNW 13:58:30 34° SW 14:01:30 10° SSE daylight
01 May - 06:37:37 10° S 06:39:54 18° SE 06:42:11 10° E daylight
01 May - 08:12:47 10° WSW 08:16:03 79° NNW 08:19:19 10° ENE daylight
01 May - 09:49:53 10° WNW 09:52:51 31° N 09:55:50 10° ENE daylight
01 May - 11:26:48 10° WNW 11:29:52 37° NNE 11:32:56 10° E daylight
01 May - 13:03:16 10° WNW 13:06:30 60° SSW 13:09:43 10° SE daylight
02 May - 07:20:44 10° SW 07:23:58 64° SSE 07:27:12 10° ENE daylight
02 May - 08:57:33 10° W 09:00:37 36° NNW 09:03:40 10° ENE daylight
02 May - 10:34:39 10° WNW 10:37:38 31° N 10:40:36 10° ENE daylight
02 May - 12:11:08 10° WNW 12:14:25 83° NNE 12:17:41 10° ESE daylight
02 May - 13:48:23 10° W 13:50:33 17° SW 13:52:43 10° S daylight
03 May - 06:28:54 10° SSW 06:31:56 37° SE 06:34:59 10° ENE daylight
03 May - 08:05:13 10° W 08:08:23 46° NNW 08:11:34 10° ENE daylight
03 May - 09:42:25 10° WNW 09:45:21 29° N 09:48:16 10° ENE daylight
03 May - 11:19:03 10° WNW 11:22:17 54° NNE 11:25:29 10° E daylight
03 May - 12:55:46 10° W 12:58:38 28° SW 13:01:28 10° SSE daylight
04 May - 05:37:23 10° S 05:39:58 22° SE 05:42:32 10° E daylight
04 May - 07:12:57 10° WSW 07:16:12 67° NNW 07:19:28 10° ENE daylight
04 May - 08:50:07 10° WNW 08:53:03 30° N 08:56:00 10° ENE daylight
04 May - 10:26:56 10° WNW 10:30:04 40° NNE 10:33:10 10° E daylight
04 May - 12:03:26 10° WNW 12:06:36 49° SW 12:09:46 10° SE daylight
05 May - 04:46:34 10° SSE 04:48:03 13° SE 04:49:32 10° ESE visible
05 May - 06:20:47 10° SW 06:24:03 77° SSE 06:27:20 10° ENE daylight
05 May - 07:57:44 10° WNW 08:00:46 34° N 08:03:47 10° ENE daylight
05 May - 09:34:46 10° WNW 09:37:47 33° N 09:40:47 10° ENE daylight
05 May - 11:11:15 10° WNW 11:14:31 84° SSW 11:17:47 10° ESE daylight
05 May - 12:48:50 10° WSW 12:50:33 14° SW 12:52:16 10° SSW daylight
